JBU1418 KBOS-KRDU

Flight info

Callsign JBU1418
Flight time 1h 53m
Altitude 36000
Route SSOXS7 SSOXS Q167 ZJAAY TAQLE3
Aircraft A320/M-SDE3FGHIRWY/LB1

Departure

Time 2026-05-07 22:06
Airport Boston Logan International Airport (KBOS)

Arrival

Time 2026-05-07 23:59
Airport Raleigh-Durham International Airport (KRDU)
Time Latitude Longitude Altitude Speed Heading
2026-05-07 21:40 42.36638 -71.01388 26 ft 0 kts 248°
2026-05-07 21:53 42.36639 -71.01384 25 ft 3 kts 248°
2026-05-07 21:53 42.36649 -71.01350 30 ft 4 kts 248°
2026-05-07 21:53 42.36659 -71.01317 31 ft 4 kts 248°
2026-05-07 21:54 42.36669 -71.01283 25 ft 4 kts 248°
2026-05-07 21:54 42.36678 -71.01255 25 ft 3 kts 234°
2026-05-07 21:54 42.36667 -71.01253 25 ft 4 kts 175°
2026-05-07 21:54 42.36691 -71.01252 25 ft 2 kts 194°
2026-05-07 21:55 42.36712 -71.01245 25 ft 1 kts 195°
2026-05-07 21:58 42.36710 -71.01245 30 ft 1 kts 195°
2026-05-07 21:58 42.36696 -71.01251 25 ft 3 kts 195°
2026-05-07 21:58 42.36667 -71.01261 30 ft 5 kts 195°
2026-05-07 21:59 42.36624 -71.01277 30 ft 7 kts 195°
2026-05-07 21:59 42.36568 -71.01302 27 ft 10 kts 202°
2026-05-07 21:59 42.36500 -71.01345 27 ft 12 kts 206°
2026-05-07 21:59 42.36417 -71.01392 29 ft 10 kts 200°
2026-05-07 22:00 42.36357 -71.01362 26 ft 11 kts 122°
2026-05-07 22:00 42.36313 -71.01264 29 ft 13 kts 121°
2026-05-07 22:00 42.36262 -71.01150 29 ft 15 kts 120°
2026-05-07 22:00 42.36216 -71.01013 27 ft 17 kts 113°
2026-05-07 22:01 42.36166 -71.00859 29 ft 19 kts 114°
2026-05-07 22:01 42.36112 -71.00690 26 ft 20 kts 111°
2026-05-07 22:01 42.36065 -71.00498 29 ft 23 kts 108°
2026-05-07 22:01 42.36012 -71.00288 25 ft 25 kts 109°
2026-05-07 22:02 42.35963 -71.00115 25 ft 16 kts 117°
2026-05-07 22:02 42.35891 -70.99989 29 ft 18 kts 133°
2026-05-07 22:02 42.35797 -70.99862 28 ft 20 kts 136°
2026-05-07 22:02 42.35690 -70.99728 27 ft 22 kts 136°
2026-05-07 22:03 42.35576 -70.99575 25 ft 24 kts 133°
2026-05-07 22:03 42.35490 -70.99443 25 ft 14 kts 117°
2026-05-07 22:03 42.35488 -70.99393 25 ft 0 kts 81°
2026-05-07 22:04 42.35490 -70.99379 25 ft 3 kts 81°
2026-05-07 22:05 42.35501 -70.99320 25 ft 11 kts 66°
2026-05-07 22:05 42.35575 -70.99311 25 ft 16 kts 317°
2026-05-07 22:05 42.35795 -70.99604 25 ft 77 kts 315°
2026-05-07 22:05 42.36308 -71.00299 24 ft 129 kts 315°
2026-05-07 22:06 42.37047 -71.01284 146 ft 159 kts 316°
2026-05-07 22:06 42.37826 -71.02266 816 ft 152 kts 317°
2026-05-07 22:06 42.38607 -71.03218 1436 ft 150 kts 312°
2026-05-07 22:06 42.39167 -71.04400 1954 ft 153 kts 293°
2026-05-07 22:07 42.39560 -71.05800 2341 ft 165 kts 291°
2026-05-07 22:07 42.40029 -71.07275 2761 ft 178 kts 297°
2026-05-07 22:07 42.40614 -71.08849 3072 ft 199 kts 290°
2026-05-07 22:07 42.40669 -71.10801 3395 ft 226 kts 253°
2026-05-07 22:08 42.39838 -71.12745 3817 ft 250 kts 238°
2026-05-07 22:08 42.38813 -71.14710 4595 ft 258 kts 237°
2026-05-07 22:08 42.37755 -71.16688 5479 ft 262 kts 236°
2026-05-07 22:08 42.36451 -71.18440 6320 ft 270 kts 217°
2026-05-07 22:09 42.34699 -71.19444 7132 ft 281 kts 194°
2026-05-07 22:09 42.32719 -71.19463 7944 ft 291 kts 171°
2026-05-07 22:09 42.30773 -71.18606 8768 ft 296 kts 162°
2026-05-07 22:09 42.28832 -71.17649 9567 ft 299 kts 162°
2026-05-07 22:10 42.26892 -71.16676 10303 ft 304 kts 161°
2026-05-07 22:10 42.24940 -71.15278 10543 ft 333 kts 150°
2026-05-07 22:10 42.23074 -71.13220 10689 ft 360 kts 142°
2026-05-07 22:10 42.21169 -71.10919 11077 ft 372 kts 143°
2026-05-07 22:11 42.19188 -71.08568 11700 ft 377 kts 144°
2026-05-07 22:11 42.17209 -71.06252 12332 ft 381 kts 146°
2026-05-07 22:11 42.15177 -71.03937 12971 ft 382 kts 150°
2026-05-07 22:11 42.13002 -71.01878 13600 ft 382 kts 153°
2026-05-07 22:12 42.10808 -70.99839 14238 ft 385 kts 154°
2026-05-07 22:12 42.08625 -70.97811 14862 ft 388 kts 154°
2026-05-07 22:12 42.06399 -70.95746 15456 ft 390 kts 154°
2026-05-07 22:12 42.04159 -70.93661 16028 ft 393 kts 154°
2026-05-07 22:13 42.01901 -70.91557 16634 ft 395 kts 154°
2026-05-07 22:13 41.99638 -70.89444 17227 ft 398 kts 154°
2026-05-07 22:13 41.97354 -70.87314 17807 ft 401 kts 155°
2026-05-07 22:13 41.95050 -70.85175 18369 ft 404 kts 155°
2026-05-07 22:14 41.92726 -70.83022 18943 ft 408 kts 155°
2026-05-07 22:14 41.90379 -70.80873 19528 ft 408 kts 158°
2026-05-07 22:14 41.87885 -70.79185 20075 ft 396 kts 170°
2026-05-07 22:14 41.85276 -70.78214 20621 ft 383 kts 181°
2026-05-07 22:15 41.82667 -70.77950 21156 ft 371 kts 192°
2026-05-07 22:15 41.80140 -70.78324 21689 ft 360 kts 201°
2026-05-07 22:15 41.77774 -70.79267 22192 ft 352 kts 210°
2026-05-07 22:15 41.75602 -70.80700 22706 ft 346 kts 216°
2026-05-07 22:16 41.73505 -70.82284 23199 ft 346 kts 216°
2026-05-07 22:16 41.71400 -70.83861 23681 ft 346 kts 216°
2026-05-07 22:16 41.69295 -70.85433 24144 ft 347 kts 216°
2026-05-07 22:16 41.67189 -70.87006 24567 ft 348 kts 216°
2026-05-07 22:17 41.65073 -70.88591 24981 ft 348 kts 216°
2026-05-07 22:17 41.63673 -70.89641 25240 ft 349 kts 216°
2026-05-07 22:17 41.62302 -70.90667 25490 ft 350 kts 216°
2026-05-07 22:17 41.60173 -70.92255 25887 ft 351 kts 216°
2026-05-07 22:18 41.58033 -70.93853 26269 ft 352 kts 216°
2026-05-07 22:18 41.54147 -70.97694 26992 ft 346 kts 230°
2026-05-07 22:18 41.52688 -71.00236 27334 ft 346 kts 237°
2026-05-07 22:19 41.51355 -71.02922 27671 ft 347 kts 236°
2026-05-07 22:19 41.50015 -71.05609 28000 ft 349 kts 236°
2026-05-07 22:19 41.48669 -71.08298 28420 ft 347 kts 236°
2026-05-07 22:19 41.47331 -71.10962 28906 ft 344 kts 236°
2026-05-07 22:20 41.46004 -71.13605 29384 ft 342 kts 236°
2026-05-07 22:20 41.44690 -71.16223 29861 ft 339 kts 236°
2026-05-07 22:20 41.43384 -71.18822 30354 ft 336 kts 236°
2026-05-07 22:20 41.42104 -71.21364 30821 ft 333 kts 236°
2026-05-07 22:21 41.40815 -71.23919 31261 ft 331 kts 236°
2026-05-07 22:21 41.39516 -71.26492 31692 ft 330 kts 236°
2026-05-07 22:21 41.38256 -71.28993 32090 ft 329 kts 236°
2026-05-07 22:21 41.36967 -71.31548 32491 ft 327 kts 236°
2026-05-07 22:22 41.35702 -71.34054 32905 ft 326 kts 236°
2026-05-07 22:22 41.34456 -71.36519 33290 ft 325 kts 236°
2026-05-07 22:22 41.33200 -71.39010 33690 ft 323 kts 236°
2026-05-07 22:22 41.31952 -71.41490 34086 ft 322 kts 236°
2026-05-07 22:23 41.30709 -71.43952 34445 ft 321 kts 236°
2026-05-07 22:23 41.29463 -71.46415 34776 ft 320 kts 236°
2026-05-07 22:23 41.28220 -71.48866 35086 ft 320 kts 236°
2026-05-07 22:23 41.26976 -71.51319 35400 ft 319 kts 236°
2026-05-07 22:24 41.25735 -71.53762 35695 ft 319 kts 236°
2026-05-07 22:24 41.24488 -71.56212 35809 ft 321 kts 237°
2026-05-07 22:24 41.23233 -71.58681 35832 ft 325 kts 237°
2026-05-07 22:25 41.20693 -71.63673 35832 ft 327 kts 237°
2026-05-07 22:25 41.18139 -71.68684 35833 ft 327 kts 237°
2026-05-07 22:26 41.15584 -71.73676 35834 ft 327 kts 237°
2026-05-07 22:26 41.13028 -71.78683 35841 ft 327 kts 237°
2026-05-07 22:27 41.10489 -71.83697 35842 ft 328 kts 237°
2026-05-07 22:27 41.07959 -71.88679 35843 ft 328 kts 236°
2026-05-07 22:28 41.05400 -71.93688 35843 ft 329 kts 236°
2026-05-07 22:28 41.02977 -71.98816 35849 ft 330 kts 243°
2026-05-07 22:29 41.01041 -72.04336 35849 ft 330 kts 243°
2026-05-07 22:29 40.99092 -72.09885 35844 ft 330 kts 243°
2026-05-07 22:30 40.97162 -72.15359 35842 ft 331 kts 243°
2026-05-07 22:30 40.95212 -72.20879 35835 ft 331 kts 243°
2026-05-07 22:31 40.93248 -72.26403 35839 ft 332 kts 243°
2026-05-07 22:31 40.91031 -72.31734 35837 ft 332 kts 232°
2026-05-07 22:32 40.87783 -72.36120 35838 ft 335 kts 228°
2026-05-07 22:32 40.84471 -72.40445 35841 ft 335 kts 228°
2026-05-07 22:33 40.81152 -72.44773 35843 ft 336 kts 228°
2026-05-07 22:33 40.77620 -72.48847 35848 ft 338 kts 224°
2026-05-07 22:34 40.73983 -72.52792 35849 ft 338 kts 224°
2026-05-07 22:34 40.70347 -72.56735 35847 ft 339 kts 224°
2026-05-07 22:35 40.66732 -72.60723 35848 ft 339 kts 225°
2026-05-07 22:35 40.63195 -72.64816 35854 ft 339 kts 226°
2026-05-07 22:36 40.59688 -72.68892 35852 ft 339 kts 226°
2026-05-07 22:36 40.56142 -72.72984 35848 ft 339 kts 226°
2026-05-07 22:37 40.52586 -72.77056 35856 ft 339 kts 225°
2026-05-07 22:37 40.49020 -72.81124 35863 ft 339 kts 225°
2026-05-07 22:38 40.45460 -72.85185 35864 ft 339 kts 225°
2026-05-07 22:38 40.41899 -72.89250 35861 ft 339 kts 225°
2026-05-07 22:39 40.38343 -72.93308 35866 ft 339 kts 225°
2026-05-07 22:39 40.34785 -72.97356 35854 ft 339 kts 226°
2026-05-07 22:40 40.31229 -73.01401 35861 ft 338 kts 225°
2026-05-07 22:40 40.27667 -73.05435 35865 ft 338 kts 225°
2026-05-07 22:41 40.24113 -73.09457 35876 ft 337 kts 225°
2026-05-07 22:41 40.20564 -73.13474 35874 ft 337 kts 226°
2026-05-07 22:42 40.17012 -73.17483 35870 ft 337 kts 226°
2026-05-07 22:42 40.14062 -73.20805 35878 ft 337 kts 226°
2026-05-07 22:43 40.10512 -73.24804 35881 ft 336 kts 226°
2026-05-07 22:43 40.06972 -73.28791 35881 ft 336 kts 226°
2026-05-07 22:44 40.03426 -73.32765 35886 ft 336 kts 226°
2026-05-07 22:44 39.99880 -73.36730 35888 ft 335 kts 226°
2026-05-07 22:45 39.96344 -73.40681 35885 ft 335 kts 226°
2026-05-07 22:45 39.92805 -73.44627 35885 ft 335 kts 226°
2026-05-07 22:46 39.89260 -73.48573 35883 ft 335 kts 226°
2026-05-07 22:46 39.85720 -73.52522 35883 ft 335 kts 226°
2026-05-07 22:47 39.82181 -73.56465 35885 ft 335 kts 226°
2026-05-07 22:47 39.78647 -73.60406 35887 ft 335 kts 226°
2026-05-07 22:48 39.75132 -73.64323 35892 ft 335 kts 226°
2026-05-07 22:48 39.71593 -73.68251 35895 ft 335 kts 226°
2026-05-07 22:49 39.68054 -73.72173 35897 ft 334 kts 226°
2026-05-07 22:49 39.64520 -73.76077 35898 ft 334 kts 226°
2026-05-07 22:50 39.60979 -73.79986 35898 ft 334 kts 226°
2026-05-07 22:50 39.57441 -73.83898 35898 ft 335 kts 226°
2026-05-07 22:51 39.53894 -73.87811 35897 ft 335 kts 226°
2026-05-07 22:51 39.50348 -73.91717 35896 ft 335 kts 226°
2026-05-07 22:52 39.46789 -73.95629 35895 ft 335 kts 226°
2026-05-07 22:52 39.43234 -73.99530 35892 ft 335 kts 226°
2026-05-07 22:53 39.39672 -74.03436 35889 ft 336 kts 226°
2026-05-07 22:53 39.36109 -74.07333 35887 ft 336 kts 226°
2026-05-07 22:54 39.32541 -74.11223 35887 ft 336 kts 226°
2026-05-07 22:54 39.28962 -74.15126 35886 ft 336 kts 226°
2026-05-07 22:55 39.25405 -74.18995 35872 ft 337 kts 226°
2026-05-07 22:55 39.21811 -74.22903 35879 ft 338 kts 226°
2026-05-07 22:56 39.18209 -74.26817 35873 ft 339 kts 226°
2026-05-07 22:56 39.14600 -74.30739 35872 ft 340 kts 226°
2026-05-07 22:57 39.10974 -74.34672 35883 ft 341 kts 226°
2026-05-07 22:57 39.07337 -74.38602 35882 ft 342 kts 226°
2026-05-07 22:58 39.03680 -74.42544 35882 ft 343 kts 226°
2026-05-07 22:58 39.00011 -74.46496 35886 ft 345 kts 226°
2026-05-07 22:59 38.96329 -74.50458 35894 ft 346 kts 227°
2026-05-07 22:59 38.92657 -74.54463 35903 ft 346 kts 228°
2026-05-07 23:00 38.89136 -74.58590 35909 ft 345 kts 229°
2026-05-07 23:00 38.85614 -74.62788 35912 ft 346 kts 229°
2026-05-07 23:01 38.82068 -74.66966 35913 ft 346 kts 229°
2026-05-07 23:01 38.78497 -74.71122 35915 ft 346 kts 229°
2026-05-07 23:02 38.74928 -74.75271 35915 ft 347 kts 228°
2026-05-07 23:02 38.71225 -74.79261 35913 ft 349 kts 226°
2026-05-07 23:03 38.67399 -74.83186 35907 ft 358 kts 226°
2026-05-07 23:03 38.63594 -74.87095 35906 ft 363 kts 226°
2026-05-07 23:04 38.59662 -74.91161 35906 ft 364 kts 226°
2026-05-07 23:04 38.55730 -74.95239 35906 ft 364 kts 226°
2026-05-07 23:05 38.51807 -74.99330 35916 ft 364 kts 227°
2026-05-07 23:05 38.47989 -75.03562 35925 ft 362 kts 228°
2026-05-07 23:06 38.44116 -75.07715 35927 ft 366 kts 225°
2026-05-07 23:06 38.40021 -75.11587 35936 ft 367 kts 224°
2026-05-07 23:07 38.35888 -75.15400 35941 ft 367 kts 224°
2026-05-07 23:07 38.31816 -75.19224 35945 ft 366 kts 224°
2026-05-07 23:08 38.27743 -75.23089 35943 ft 365 kts 225°
2026-05-07 23:08 38.23677 -75.26940 35943 ft 364 kts 225°
2026-05-07 23:09 38.19611 -75.30791 35940 ft 364 kts 225°
2026-05-07 23:09 38.15539 -75.34634 35939 ft 365 kts 225°
2026-05-07 23:10 38.11466 -75.38468 35939 ft 365 kts 225°
2026-05-07 23:10 38.07385 -75.42292 35938 ft 364 kts 225°
2026-05-07 23:11 38.03515 -75.46338 35939 ft 358 kts 230°
2026-05-07 23:11 37.99860 -75.50640 35940 ft 358 kts 230°
2026-05-07 23:12 37.96223 -75.54900 35937 ft 358 kts 230°
2026-05-07 23:12 37.92566 -75.59176 35935 ft 358 kts 230°
2026-05-07 23:13 37.88909 -75.63453 35937 ft 357 kts 230°
2026-05-07 23:13 37.85252 -75.67726 35939 ft 357 kts 230°
2026-05-07 23:14 37.81591 -75.71987 35939 ft 358 kts 230°
2026-05-07 23:14 37.77927 -75.76244 35941 ft 358 kts 230°
2026-05-07 23:15 37.74266 -75.80493 35939 ft 357 kts 230°
2026-05-07 23:15 37.70604 -75.84741 35939 ft 357 kts 230°
2026-05-07 23:16 37.66942 -75.88991 35934 ft 356 kts 230°
2026-05-07 23:16 37.63375 -75.93102 35915 ft 343 kts 230°
2026-05-07 23:17 37.59976 -75.97258 35915 ft 335 kts 236°
2026-05-07 23:17 37.57048 -76.01840 35631 ft 335 kts 237°
2026-05-07 23:17 37.55582 -76.04121 35377 ft 335 kts 237°
2026-05-07 23:18 37.54112 -76.06403 35124 ft 335 kts 237°
2026-05-07 23:18 37.52641 -76.08687 34875 ft 336 kts 237°
2026-05-07 23:18 37.51164 -76.10981 34622 ft 337 kts 237°
2026-05-07 23:18 37.49689 -76.13265 34120 ft 335 kts 237°
2026-05-07 23:19 37.48222 -76.15533 33488 ft 333 kts 237°
2026-05-07 23:19 37.46756 -76.17799 32802 ft 334 kts 237°
2026-05-07 23:19 37.45287 -76.20067 32114 ft 334 kts 236°
2026-05-07 23:19 37.43821 -76.22331 31435 ft 334 kts 236°
2026-05-07 23:20 37.42359 -76.24595 30752 ft 333 kts 236°
2026-05-07 23:20 37.40891 -76.26866 29972 ft 334 kts 236°
2026-05-07 23:20 37.39437 -76.29110 29190 ft 336 kts 236°
2026-05-07 23:20 37.37959 -76.31391 28388 ft 337 kts 236°
2026-05-07 23:21 37.36475 -76.33681 27608 ft 339 kts 235°
2026-05-07 23:21 37.34992 -76.35961 27131 ft 336 kts 235°
2026-05-07 23:21 37.33511 -76.38232 26604 ft 335 kts 235°
2026-05-07 23:21 37.32035 -76.40495 26062 ft 334 kts 234°
2026-05-07 23:22 37.30566 -76.42749 25524 ft 333 kts 234°
2026-05-07 23:22 37.29099 -76.44997 24991 ft 332 kts 234°
2026-05-07 23:22 37.27640 -76.47233 24458 ft 330 kts 234°
2026-05-07 23:22 37.26188 -76.49462 23926 ft 329 kts 234°
2026-05-07 23:23 37.24731 -76.51715 23654 ft 342 kts 234°
2026-05-07 23:23 37.23219 -76.54086 23395 ft 352 kts 234°
2026-05-07 23:23 37.21687 -76.56495 23144 ft 354 kts 234°
2026-05-07 23:23 37.20144 -76.58916 22894 ft 355 kts 234°
2026-05-07 23:24 37.18598 -76.61332 22645 ft 355 kts 234°
2026-05-07 23:24 37.17052 -76.63744 22397 ft 355 kts 234°
2026-05-07 23:24 37.15510 -76.66147 22143 ft 354 kts 234°
2026-05-07 23:24 37.13965 -76.68552 21893 ft 352 kts 234°
2026-05-07 23:25 37.12426 -76.70943 21908 ft 353 kts 234°
2026-05-07 23:25 37.10884 -76.73336 21914 ft 353 kts 234°
2026-05-07 23:25 37.09340 -76.75736 21918 ft 354 kts 234°
2026-05-07 23:25 37.07791 -76.78138 21914 ft 355 kts 234°
2026-05-07 23:26 37.06239 -76.80538 21919 ft 355 kts 234°
2026-05-07 23:26 37.04680 -76.82942 21925 ft 355 kts 234°
2026-05-07 23:26 37.03129 -76.85338 21924 ft 355 kts 234°
2026-05-07 23:26 37.01572 -76.87745 21924 ft 355 kts 234°
2026-05-07 23:27 36.98481 -76.92520 21925 ft 356 kts 234°
2026-05-07 23:27 36.96919 -76.94928 21785 ft 356 kts 234°
2026-05-07 23:27 36.95361 -76.97327 21534 ft 354 kts 234°
2026-05-07 23:28 36.93813 -76.99709 21285 ft 353 kts 234°
2026-05-07 23:28 36.92263 -77.02093 21033 ft 352 kts 234°
2026-05-07 23:28 36.90720 -77.04467 20781 ft 352 kts 234°
2026-05-07 23:28 36.89180 -77.06834 20534 ft 351 kts 234°
2026-05-07 23:29 36.87647 -77.09191 20280 ft 350 kts 234°
2026-05-07 23:29 36.86606 -77.10791 20109 ft 349 kts 234°
2026-05-07 23:29 36.85075 -77.13137 19860 ft 349 kts 234°
2026-05-07 23:29 36.83546 -77.15478 19612 ft 348 kts 234°
2026-05-07 23:30 36.82017 -77.17821 19360 ft 347 kts 234°
2026-05-07 23:30 36.80491 -77.20158 19110 ft 346 kts 234°
2026-05-07 23:30 36.78987 -77.22453 18863 ft 346 kts 234°
2026-05-07 23:30 36.77459 -77.24763 18612 ft 345 kts 233°
2026-05-07 23:31 36.75918 -77.27059 18362 ft 345 kts 233°
2026-05-07 23:31 36.74374 -77.29347 18111 ft 345 kts 233°
2026-05-07 23:31 36.72833 -77.31632 17860 ft 344 kts 233°
2026-05-07 23:31 36.71294 -77.33910 17608 ft 343 kts 233°
2026-05-07 23:32 36.69759 -77.36183 17357 ft 342 kts 233°
2026-05-07 23:32 36.68231 -77.38448 17107 ft 342 kts 233°
2026-05-07 23:32 36.66703 -77.40717 16856 ft 341 kts 234°
2026-05-07 23:32 36.65180 -77.42982 16595 ft 341 kts 234°
2026-05-07 23:33 36.63747 -77.45109 16377 ft 340 kts 233°
2026-05-07 23:33 36.62229 -77.47355 16121 ft 339 kts 233°
2026-05-07 23:33 36.60711 -77.49601 15870 ft 338 kts 233°
2026-05-07 23:33 36.59195 -77.51847 15617 ft 338 kts 233°
2026-05-07 23:34 36.57688 -77.54081 15366 ft 337 kts 233°
2026-05-07 23:34 36.56180 -77.56315 15111 ft 337 kts 234°
2026-05-07 23:34 36.54674 -77.58541 14857 ft 336 kts 233°
2026-05-07 23:34 36.53193 -77.60728 14617 ft 335 kts 234°
2026-05-07 23:35 36.51689 -77.62945 14366 ft 335 kts 234°
2026-05-07 23:35 36.50189 -77.65153 14122 ft 334 kts 234°
2026-05-07 23:35 36.48689 -77.67364 13997 ft 334 kts 234°
2026-05-07 23:35 36.47193 -77.69569 14013 ft 335 kts 234°
2026-05-07 23:36 36.45691 -77.71781 14014 ft 335 kts 234°
2026-05-07 23:36 36.44187 -77.73994 14016 ft 335 kts 234°
2026-05-07 23:36 36.42685 -77.76203 14016 ft 335 kts 234°
2026-05-07 23:36 36.41178 -77.78413 14022 ft 335 kts 234°
2026-05-07 23:37 36.39673 -77.80616 14017 ft 334 kts 234°
2026-05-07 23:37 36.38169 -77.82820 14015 ft 334 kts 234°
2026-05-07 23:37 36.36666 -77.85021 14024 ft 334 kts 234°
2026-05-07 23:37 36.35166 -77.87220 14027 ft 334 kts 234°
2026-05-07 23:38 36.33667 -77.89422 14027 ft 334 kts 234°
2026-05-07 23:38 36.32166 -77.91625 14026 ft 334 kts 234°
2026-05-07 23:38 36.30661 -77.93823 14027 ft 334 kts 234°
2026-05-07 23:38 36.29154 -77.96019 14026 ft 334 kts 234°
2026-05-07 23:39 36.27646 -77.98216 13973 ft 335 kts 234°
2026-05-07 23:39 36.26141 -78.00412 13711 ft 333 kts 234°
2026-05-07 23:39 36.24647 -78.02592 13463 ft 332 kts 234°
2026-05-07 23:39 36.23245 -78.04846 13221 ft 327 kts 241°
2026-05-07 23:40 36.22195 -78.07286 12969 ft 324 kts 248°
2026-05-07 23:40 36.21264 -78.09824 12719 ft 324 kts 248°
2026-05-07 23:40 36.20342 -78.12367 12470 ft 323 kts 249°
2026-05-07 23:40 36.19464 -78.14924 12217 ft 323 kts 250°
2026-05-07 23:41 36.18612 -78.17489 11968 ft 322 kts 250°
2026-05-07 23:41 36.17770 -78.20054 11715 ft 321 kts 250°
2026-05-07 23:41 36.16926 -78.22614 11461 ft 321 kts 250°
2026-05-07 23:41 36.16077 -78.25180 11218 ft 323 kts 249°
2026-05-07 23:42 36.15189 -78.27723 10966 ft 325 kts 245°
2026-05-07 23:42 36.13942 -78.30067 10713 ft 323 kts 235°
2026-05-07 23:42 36.12584 -78.32210 10461 ft 311 kts 235°
2026-05-07 23:42 36.11273 -78.34276 10208 ft 300 kts 234°
2026-05-07 23:43 36.10004 -78.36277 9965 ft 291 kts 234°
2026-05-07 23:43 36.08783 -78.38207 9836 ft 280 kts 234°
2026-05-07 23:43 36.07604 -78.40066 9708 ft 269 kts 234°
2026-05-07 23:43 36.06457 -78.41871 9581 ft 266 kts 234°
2026-05-07 23:44 36.05317 -78.43665 9458 ft 265 kts 234°
2026-05-07 23:44 36.04177 -78.45461 9333 ft 266 kts 234°
2026-05-07 23:44 36.03034 -78.47264 9207 ft 266 kts 233°
2026-05-07 23:44 36.01891 -78.49065 9080 ft 266 kts 233°
2026-05-07 23:45 36.00747 -78.50870 8963 ft 267 kts 233°
2026-05-07 23:45 35.99469 -78.52539 8954 ft 271 kts 222°
2026-05-07 23:45 35.98036 -78.53992 8752 ft 269 kts 221°
2026-05-07 23:45 35.96587 -78.55446 8505 ft 268 kts 221°
2026-05-07 23:46 35.95139 -78.56893 8261 ft 268 kts 221°
2026-05-07 23:46 35.93693 -78.58331 8019 ft 267 kts 221°
2026-05-07 23:46 35.92247 -78.59765 7774 ft 267 kts 221°
2026-05-07 23:46 35.90803 -78.61203 7523 ft 266 kts 221°
2026-05-07 23:47 35.89379 -78.62625 7338 ft 259 kts 221°
2026-05-07 23:47 35.87999 -78.64004 7212 ft 251 kts 221°
2026-05-07 23:47 35.86665 -78.65336 7086 ft 243 kts 221°
2026-05-07 23:47 35.85425 -78.66692 6922 ft 235 kts 226°
2026-05-07 23:48 35.84270 -78.68085 6805 ft 231 kts 226°
2026-05-07 23:48 35.83130 -78.69464 6649 ft 231 kts 226°
2026-05-07 23:48 35.81988 -78.70848 6458 ft 229 kts 226°
2026-05-07 23:48 35.80868 -78.72201 6283 ft 222 kts 226°
2026-05-07 23:49 35.79814 -78.73475 6109 ft 217 kts 226°
2026-05-07 23:49 35.78717 -78.74804 5916 ft 211 kts 226°
2026-05-07 23:49 35.77676 -78.76072 5652 ft 209 kts 226°
2026-05-07 23:49 35.76649 -78.77325 5437 ft 205 kts 226°
2026-05-07 23:50 35.75648 -78.78547 5251 ft 200 kts 226°
2026-05-07 23:50 35.74669 -78.79740 5083 ft 198 kts 226°
2026-05-07 23:50 35.73708 -78.80909 4941 ft 198 kts 226°
2026-05-07 23:50 35.72719 -78.82108 4826 ft 198 kts 226°
2026-05-07 23:51 35.71735 -78.83303 4734 ft 200 kts 226°
2026-05-07 23:51 35.70750 -78.84500 4669 ft 200 kts 226°
2026-05-07 23:51 35.69756 -78.85703 4631 ft 200 kts 226°
2026-05-07 23:51 35.68763 -78.86905 4585 ft 200 kts 226°
2026-05-07 23:52 35.67768 -78.88107 4544 ft 200 kts 226°
2026-05-07 23:52 35.66819 -78.89359 4490 ft 199 kts 239°
2026-05-07 23:52 35.66461 -78.90948 4386 ft 195 kts 277°
2026-05-07 23:52 35.66988 -78.92444 4289 ft 194 kts 315°
2026-05-07 23:53 35.68132 -78.93307 4215 ft 193 kts 337°
2026-05-07 23:53 35.69350 -78.93853 4137 ft 180 kts 341°
2026-05-07 23:53 35.70559 -78.94028 4023 ft 172 kts
2026-05-07 23:53 35.71719 -78.93905 3910 ft 162 kts
2026-05-07 23:54 35.72804 -78.93747 3766 ft 156 kts
2026-05-07 23:54 35.73788 -78.93601 3624 ft 151 kts
2026-05-07 23:54 35.74811 -78.93454 3472 ft 145 kts
2026-05-07 23:54 35.75807 -78.93316 3320 ft 143 kts
2026-05-07 23:55 35.76780 -78.93108 3185 ft 142 kts 23°
2026-05-07 23:55 35.77557 -78.92379 3076 ft 142 kts 44°
2026-05-07 23:55 35.78252 -78.91522 2907 ft 141 kts 44°
2026-05-07 23:55 35.78935 -78.90684 2731 ft 139 kts 44°
2026-05-07 23:56 35.79619 -78.89843 2549 ft 139 kts 44°
2026-05-07 23:56 35.80295 -78.89011 2367 ft 139 kts 45°
2026-05-07 23:56 35.80967 -78.88185 2206 ft 137 kts 45°
2026-05-07 23:56 35.81631 -78.87367 2010 ft 134 kts 46°
2026-05-07 23:57 35.82290 -78.86552 1828 ft 134 kts 46°
2026-05-07 23:57 35.82947 -78.85743 1650 ft 134 kts 47°
2026-05-07 23:57 35.83607 -78.84931 1468 ft 134 kts 47°
2026-05-07 23:57 35.84268 -78.84121 1284 ft 134 kts 47°
2026-05-07 23:58 35.84924 -78.83307 1098 ft 134 kts 48°
2026-05-07 23:58 35.85572 -78.82482 925 ft 134 kts 47°
2026-05-07 23:58 35.86235 -78.81679 744 ft 134 kts 47°
2026-05-07 23:58 35.86895 -78.80870 588 ft 134 kts 47°
2026-05-07 23:59 35.87547 -78.80071 420 ft 135 kts 46°
2026-05-07 23:59 35.88141 -78.79333 394 ft 102 kts 43°
2026-05-07 23:59 35.88517 -78.78871 391 ft 51 kts 47°
2026-05-07 23:59 35.88561 -78.78708 392 ft 14 kts 121°
2026-05-08 00:00 35.88540 -78.78679 392 ft 0 kts 133°
2026-05-08 00:00 35.88536 -78.78676 392 ft 2 kts 139°
2026-05-08 00:00 35.88510 -78.78681 392 ft 6 kts 211°
2026-05-08 00:00 35.88475 -78.78728 392 ft 9 kts 229°
2026-05-08 00:01 35.88425 -78.78797 391 ft 12 kts 227°
2026-05-08 00:01 35.88364 -78.78874 391 ft 13 kts 224°
2026-05-08 00:01 35.88297 -78.78952 391 ft 9 kts 223°
2026-05-08 00:01 35.88260 -78.78995 391 ft 5 kts 223°
2026-05-08 00:02 35.88231 -78.79030 391 ft 6 kts 226°
2026-05-08 00:02 35.88200 -78.79071 391 ft 7 kts 226°
2026-05-08 00:02 35.88166 -78.79115 392 ft 7 kts 226°
2026-05-08 00:02 35.88129 -78.79160 392 ft 8 kts 214°
2026-05-08 00:03 35.88077 -78.79146 392 ft 9 kts 155°
2026-05-08 00:03 35.88016 -78.79140 392 ft 9 kts 185°
2026-05-08 00:03 35.87990 -78.79142 392 ft 0 kts 184°